Location: Newark
(34.9500°N, 139.9667°E)
Time: 20:16:57
(UTC+00:00)

Vanguard 1 Rocket - Pass Details

Date: 15 December 2019
Orbit: 650 x 4226 km, 34.3° (Epoch: 25 January)

Event Time Altitude Azimuth Distance (km) Brightness Sun altitude
Rises 08:18:22 0° 221° (SW) 8,385 13.5 -9.9°
Reaches altitude 10° 08:24:31 10° 217° (SW) 7,423 13.0 -11.0°
Maximum altitude 08:48:28 51° 150° (SSE) 4,131 10.6 -15.7°
Enters shadow 09:00:53 21° 87° (E) 4,587 10.3 -18.1°
Drops below altitude 10° 09:04:01 10° 81° (E) 5,082 - -18.7°
Sets 09:07:15 0° 76° (ENE) 5,702 - -19.4°
